Location: Stoke Bliss
(52.2667°N, 2.5167°W)
Time: 20:35:48
(UTC+00:00)

Cosmos 2218 Rocket - Pass Details

Date: 03 March 2021
Orbit: 955 x 1007 km, 82.9° (Epoch: 15 April)

Event Time Altitude Azimuth Distance (km) Brightness Sun altitude
Rises 20:34:08 0° 199° (SSW) 3,724 7.0 -24.9°
Reaches altitude 10° 20:36:41 10° 202° (SSW) 2,780 6.3 -25.3°
Maximum altitude 20:43:02 65° 284° (WNW) 1,103 4.4 -26.1°
Drops below altitude 10° 20:49:25 10° 6° (N) 2,787 6.6 -27.0°
Sets 20:52:00 0° 10° (N) 3,735 7.3 -27.4°
